Christchurch, New Zealand

10:03 PM NZST on July 24, 2017 (GMT +1200)
Christchurch International

Weather History for NZCH - May, 2013

Change the Weather History Date:

Sunday, May 5, 2013

  Actual Average Record
Temperature  
Mean Temperature 55 °F -  
Max Temperature 62 °F 55 °F 71 °F (2007)
Min Temperature 48 °F 37 °F 30 °F (1999)
Degree Days  
Heating Degree Days 10    
Growing Degree Days 5 (Base 50)    
Moisture  
Dew Point 50 °F    
Average Humidity 88    
Maximum Humidity 100    
Minimum Humidity 68    
Precipitation  
Precipitation 0.00 in - - ()
Sea Level Pressure  
Sea Level Pressure 29.29 in    
Wind  
Wind Speed 7 mph ()    
Max Wind Speed 17 mph    
Max Gust Speed -    
Visibility 5.0 miles    
Events Rain    
Averages and records for this station are not official NWS values.
T = Trace of Precipitation, MM = Missing Value Source: Averaged Metar Reports

Daily Weather History Graph

Daily Weather History Graph

Search for Another Location

Airport or City:

Trip Planner

Search our weather history database for the weather conditions in past years. The results will help you decide how hot, cold, wet, or windy it might be!

Date:

Astronomy

May. 05, 2013 Rise Set
Actual Time 7:25 AM NZST 5:27 PM NZST
Civil Twilight 6:55 AM NZST 5:57 PM NZST
Nautical Twilight 6:21 AM NZST 6:31 PM NZST
Astronomical Twilight 5:47 AM NZST 7:04 PM NZST
Moon 2:11 AM NZST (5/5) 2:47 PM NZST (5/5)
Length of Visible Light 11h 01m
Length of Day
10h 01m
Waning Crescent, 24% of the Moon is Illuminated
May 5
Waning Crescent
May 10
New
May 18
First Quarter
May 25
Full
Jun 1
Last Quarter

Hourly Weather History & Observations

Time (NZST) Temp. Dew Point Humidity Pressure Visibility Wind Dir Wind Speed Gust Speed Precip Events Conditions
12:00 AM 50.0 °F 46.4 °F 87% 29.42 in - East 4.6 mph - N/A   Clear
1:00 AM 51.8 °F 50.0 °F 94% 29.39 in - East 5.8 mph - N/A   Clear
2:00 AM 50.0 °F 46.4 °F 87% 29.36 in - ENE 4.6 mph - N/A   Clear
3:00 AM 51.8 °F 50.0 °F 94% 29.33 in - East 2.3 mph - N/A   Clear
4:00 AM 50.0 °F 48.2 °F 94% 29.30 in - NNE 3.5 mph - N/A   Clear
5:00 AM 51.8 °F 50.0 °F 94% 29.30 in - ESE 6.9 mph - N/A   Clear
6:00 AM 50.0 °F 48.2 °F 94% 29.30 in - ESE 4.6 mph - N/A   Clear
7:00 AM 48.2 °F 46.4 °F 93% 29.27 in - NNE 3.5 mph - N/A   Clear
8:00 AM 50.0 °F 46.4 °F 87% 29.27 in - East 2.3 mph - N/A   Clear
9:00 AM 59.0 °F 50.0 °F 72% 29.27 in - ENE 3.5 mph - N/A   Clear
11:00 AM 62.6 °F 51.8 °F 68% 29.27 in - South 2.3 mph - N/A   Clear
12:00 PM 62.6 °F 51.8 °F 68% 29.27 in 6.2 mi SW 12.7 mph - N/A   Scattered Clouds
1:00 PM 60.8 °F 51.8 °F 72% 29.24 in 6.2 mi SW 16.1 mph - N/A   Mostly Cloudy
2:00 PM 59.0 °F 51.8 °F 77% 29.21 in 6.2 mi SW 16.1 mph - N/A   Mostly Cloudy
3:00 PM 57.2 °F 51.8 °F 82% 29.21 in 6.2 mi SSW 15.0 mph - N/A   Mostly Cloudy
4:00 PM 55.4 °F 51.8 °F 88% 29.21 in 6.2 mi SW 15.0 mph - N/A   Mostly Cloudy
5:00 PM 55.4 °F 51.8 °F 88% 29.24 in 6.2 mi SSW 15.0 mph - N/A   Mostly Cloudy
6:00 PM 53.6 °F 51.8 °F 94% 29.27 in 6.2 mi SSW 10.4 mph - N/A   Light Drizzle
7:00 PM 53.6 °F 51.8 °F 94% 29.27 in 3.7 mi SSW 6.9 mph - N/A   Drizzle
8:00 PM 53.6 °F 53.6 °F 100% 29.30 in 3.7 mi SW 6.9 mph - N/A   Drizzle
9:00 PM 53.6 °F 53.6 °F 100% 29.30 in 3.1 mi SSW 13.8 mph - N/A Rain Rain
10:00 PM 53.6 °F 53.6 °F 100% 29.33 in 2.5 mi SSW 16.1 mph - N/A Rain Rain
11:00 PM 53.6 °F 51.8 °F 94% 29.33 in 3.1 mi SW 17.3 mph - N/A Rain Light Rain